TimeMST,TemperatureF,Dew PointF,Humidity,Sea Level PressureIn,VisibilityMPH,Wind Direction,Wind SpeedMPH,Gust SpeedMPH,PrecipitationIn,Events,Conditions,WindDirDegrees,DateUTC
12:15 AM,32.0,23.0,69,30.45,10.0,Calm,Calm,-,N/A,,Clear,0,2013-01-18 07:15:00
12:35 AM,32.0,23.0,69,30.45,10.0,Calm,Calm,-,N/A,,Clear,0,2013-01-18 07:35:00
12:55 AM,30.2,23.0,75,30.45,10.0,Calm,Calm,-,N/A,,Clear,0,2013-01-18 07:55:00
1:15 AM,35.6,23.0,60,30.44,10.0,Calm,Calm,-,N/A,,Clear,0,2013-01-18 08:15:00
1:35 AM,30.2,23.0,75,30.44,10.0,Calm,Calm,-,N/A,,Clear,0,2013-01-18 08:35:00
1:55 AM,32.0,23.0,69,30.44,10.0,Calm,Calm,-,N/A,,Clear,0,2013-01-18 08:55:00
2:15 AM,32.0,23.0,69,30.43,10.0,Calm,Calm,-,N/A,,Clear,0,2013-01-18 09:15:00
2:55 AM,32.0,23.0,69,30.41,10.0,Calm,Calm,-,N/A,,Clear,0,2013-01-18 09:55:00
3:15 AM,32.0,23.0,69,30.40,10.0,Calm,Calm,-,N/A,,Clear,0,2013-01-18 10:15:00
3:35 AM,32.0,23.0,69,30.39,10.0,Calm,Calm,-,N/A,,Clear,0,2013-01-18 10:35:00
3:55 AM,32.0,23.0,69,30.39,10.0,Calm,Calm,-,N/A,,Clear,0,2013-01-18 10:55:00
5:50 AM,30.2,24.8,80,30.37,10.0,Calm,Calm,-,N/A,,Clear,0,2013-01-18 12:50:00
6:50 AM,30.2,23.0,75,30.38,10.0,Calm,Calm,-,N/A,,Clear,0,2013-01-18 13:50:00
7:50 AM,33.8,28.4,81,30.39,10.0,Calm,Calm,-,N/A,,Clear,0,2013-01-18 14:50:00
8:50 AM,41.0,28.4,61,30.39,10.0,SSE,4.6,-,N/A,,Clear,150,2013-01-18 15:50:00
10:50 AM,53.6,26.6,35,30.34,10.0,South,16.1,-,N/A,,Clear,180,2013-01-18 17:50:00
11:50 AM,55.4,23.0,29,30.30,10.0,South,13.8,-,N/A,,Clear,180,2013-01-18 18:50:00
12:50 PM,57.2,23.0,27,30.26,10.0,South,10.4,18.4,N/A,,Clear,180,2013-01-18 19:50:00
1:50 PM,57.2,23.0,27,30.23,10.0,South,16.1,21.9,N/A,,Clear,190,2013-01-18 20:50:00
3:50 PM,57.2,19.4,23,30.21,10.0,South,12.7,-,N/A,,Clear,180,2013-01-18 22:50:00
4:50 PM,55.4,21.2,26,30.21,10.0,South,8.1,-,N/A,,Clear,180,2013-01-18 23:50:00
5:15 PM,50.0,23.0,35,30.22,10.0,Calm,Calm,-,N/A,,Clear,0,2013-01-19 00:15:00
5:45 PM,46.4,23.0,40,30.21,10.0,Calm,Calm,-,N/A,,Clear,0,2013-01-19 00:45:00
6:35 PM,42.8,23.0,46,30.22,10.0,Calm,Calm,-,N/A,,Clear,0,2013-01-19 01:35:00
7:15 PM,41.0,23.0,49,30.22,10.0,Calm,Calm,-,N/A,,Clear,0,2013-01-19 02:15:00
7:55 PM,39.2,23.0,52,30.22,10.0,Calm,Calm,-,N/A,,Clear,0,2013-01-19 02:55:00
8:15 PM,39.2,23.0,52,30.22,10.0,Calm,Calm,-,N/A,,Clear,0,2013-01-19 03:15:00
8:35 PM,37.4,23.0,56,30.21,10.0,Calm,Calm,-,N/A,,Clear,0,2013-01-19 03:35:00
9:15 PM,37.4,23.0,56,30.20,10.0,South,9.2,-,N/A,,Clear,180,2013-01-19 04:15:00
9:55 PM,37.4,24.8,60,30.20,10.0,Calm,Calm,-,N/A,,Clear,0,2013-01-19 04:55:00
10:15 PM,35.6,24.8,65,30.20,10.0,Calm,Calm,-,N/A,,Clear,0,2013-01-19 05:15:00